Погода в Чите

Поиск расширенной информации на нашем сайте:

Полезная информация:

Новости сайта



02.01.2020
Опубликован Долгосрочный прогноз погоды по городам России и ближнего зарубежья на январь 2020 года.
Карты: Прогноз на январь и февраль 2020 года, Сравнение прогнозируемой аномалии приземной температуры воздуха на январь 2020 года по разным моделям.




Погода в Чите - сегодня

Время (UTC), дата Ветер
(°,м/с) 
Видим.   Явления Облачность Т
(°С)
Тd
(°С)
f(%) Тe
(°С)
Pmin
(гПа)
dP
(гПа)
Po
(мм)
O2
(г/м3)
Тmin Tmax R s Состояние
почвы
00 30.11.20 тихо ()   2000 м  мгла  ясно 
-26.2 -29.1 77 -26  1043.5  0.4  714  320  -26.3      сухой снег
10-40% 
03 30.11.20 тихо ()   1000 м  мгла  4/0 верхняя 
[Ci fib]
-21.2 -24.5 75 -21  1041.7  0.1  714  313           
06 30.11.20 тихо ()   2000 м  слаб. ливневой снег  10/8 600 м кучево-дожд., средняя, верхняя 
[Cb cap|Ac trans|Ci fib]
-15 -19.1 71 -15  1037.9  -1.5  713  305           
09 30.11.20 090 (В) 2000 м  мгла  8/5 1000 м средняя, верхняя 
[Sc diur, vesp|Ac trans|Ci fib]
-16 -18.6 80 -16  1038.1  713  306           
12 30.11.20 020 (С) 3000 м  мгла  6/3 1000 м средняя, верхняя 
[Sc|Ac lent|Ci fib]
-19.3 -21.6 82 -20  1039.4  0.1  713  311    -13.8  0.0     
15 30.11.20 тихо ()   1000 м  мгла  3/0 верхняя 
[Ci fib]
-23.1 -25.7 79 -23  1040.3  -0.5  713  315           
18 30.11.20 тихо ()   3000 м  мгла  6/0 средняя, верхняя 
[Ac trans|Ci fib]
-23.4 -26.2 78 -23  1039.8  -0.5  712  315           
21 30.11.20 тихо ()   4000 м  мгла  4/0 верхняя 
[Ci fib]
-25 -27.9 77 -25  1039.5  -0.8  711  317           
00 01.12.20 350 (С) 2000 м  мгла  4/0 верхняя 
[Ci fib]
-25.6 -28.5 77 -26  1039.7  711  318  -25.7      сухой снег
10-40% 
03 01.12.20 тихо ()   2000 м  мгла  4/0 верхняя 
[Ci fib]
-18.6 -21.9 75 -19  1036.8  -0.2  711  309           
06 01.12.20 230 (ЮЗ) 2000 м  мгла  8/0 верхняя 
[Ci fib]
-6.9 -15.1 52 -7  1031.2  -1.4  710  295           
09 01.12.20 250 (З) 20000 м    8/0 верхняя 
[Ci fib]
-9.6 -15.4 63 -11  1032.4  0.3  710  298           
12 01.12.20 150 (ЮВ) 50000 м    3/0 верхняя 
[Ci fib]
-15.5 -18 81 -16  1034.8  0.3  711  305    -6.6       
15 01.12.20 130 (ЮВ) 50000 м    ясно 
-16.6 -18.6 85 -17  1035.5  0.2  711  306           
18 01.12.20 100 (В) 50000 м    3/0 верхняя 
[Ci fib]
-17.3 -19.5 83 -17  1036.3  0.5  711  307           
21 01.12.20 030 (СВ) 50000 м    3/0 верхняя 
[Ci fib]
-19 -21.3 82 -19  1037.3  0.5  711  310           
00 02.12.20 090 (В) 4000 м  мгла  3/0 верхняя 
[Ci fib]
-21.4 -23.5 83 -22  1038.5  0.3  712  313  -21.8         
03 02.12.20 тихо ()   20000 м  дым  10/0 верхняя 
[Ci fib]
-10.3 -15 68 -10  1034.9  0.3  712  299  -22.1         
06 02.12.20 250 (З) 20000 м    3/0 верхняя 
[Ci fib]
-7.2 -15 54 -10  1032.9  -1  711  296           
09 02.12.20 210 (ЮЗ) 50000 м    4/0 верхняя 
[Ci fib]
-10 -15 67 -13  1035  1.1  712  299           
12 02.12.20 220 (ЮЗ) 50000 м    3/0 верхняя 
[Ci fib]
-11.1 -15.6 69 -14  1036.2  0.8  713  301    -7       
15 02.12.20 220 (ЮЗ) 50000 м    1/0 верхняя 
[Ci fib]
-12.3 -16 74 -16  1036.8  0.2  713  302           
18 02.12.20 220 (ЮЗ) 50000 м    ясно 
-11.9 -16.2 70 -16  1036.3  -0.4  713  301           
21 02.12.20 210 (ЮЗ) 50000 м    4/0 верхняя 
[Ci fib]
-11.9 -16.3 70 -16  1034.9  -1.3  712  301           
00 03.12.20 180 (Ю) 20000 м    10/0 средняя, верхняя 
[Ac trans|Ci fib]
-10.9 -15.8 67 -15  1033.9  -0.6  711  300  -12.4      сухой снег
10-40% 
Время (UTC), дата Ветер
(°,м/с) 
Видим.   Явления Облачность Т
(°С)
Тd
(°С)
f(%) Тe
(°С)
Pmin
(гПа)
dP
(гПа)
Po
(мм)
O2
(г/м3)
Тmin Tmax R s Состояние
почвы

Для получения пояснительной информации подведите курсор к названию столбца.

ПОГОДА в Чите - архив

Всё, что Вы хотите узнать о погоде в Чите - удобно и подробно!

Выберите нужную дату (начиная с 1 января 2019* года) и нажмите кнопку "Найти".
Будут отображены архивные сводки погоды по пункту Чита, начиная с указанной даты.


Отображать данные в формате CSV (для использования в таблицах Excel)


Внимание! Наш архив погоды предназначен исключительно для личного некоммерческого использования в познавательных целях. Если Вам необходимы официальные справки о состоянии погоды (для производственных, юридических, коммерческих и т.п. целей), обращайтесь в органы Росгидромета.

*Примечание: данная дата относится к архиву по метеостанциям СССР (Россия, СНГ, Балтия).
Архив по метеостанциям Зарубежной Европы и Азии (кроме Китая) хранится 10 дней, по другим регионам земного шара (Китай, Африка, Америка, Австралия, Океания) - 1 день.

Чита - район местоположения метеостанции


Название, широта, долгота, высота метеостанции:
Чита (город) 52.1°ш. 113.3°д. 680 м над ур. моря [Российская Федерация]

Дополнительная информация

В oтличие oт бoльшинства пoгoдных сайтoв мы публикуем пoдрoбную метеoинфoрмацию в детальнoм прoфессиoнальнoм фoрмате.

Характеристики температуры и влажнoсти вoздуха измеряются на высoте 2 м в тени вдали oт зданий и деревьев.
Скoрoсть ветра измеряется на высoте 10 м (на урoвне рoста челoвека скoрoсть ветра ниже в 1.5-2 раза). Если метеoстанция нахoдится в гoрoде или в лесу, тo скoрoсть ветра занижена на 2-4 м/с пo сравнению с oткрытым местoм. Скoрoсть ветра над акватoриями крупных рек и oзёр, а также на вершинах хoлмoв на 2-5 м/с выше, чем в oбычных услoвиях.
Атмoсфернoе давление в разных тoчках местнoсти мoжет значительнo oтличаться oт давления на метеoстанции, в зависимoсти oт услoвий рельефа (при пoдъёме на 10 м давление пoнижается примернo на 1 мм рт.ст.).